FENGYUN 4B

Last updated on Wed Sep 23 2026 00:03:34 GMT+0000 (Coordinated Universal Time)

1 48808U 21047A 26265.57899826 -.00000333 00000+0 00000+0 0 9995 2 48808 0.3919 80.9673 0008196 281.1871 312.4051 1.00275884 19547
UTC large
Height (km)
Speed (km/s)
/
Latitude / Longitude
Inclination (degrees)
Orbital Period (minutes)
Azimuth
Elevation
Range (km)
Doppler Factor

Next 0 passes for location: London (51.5072 / 0.1276)

No passes found over London.
FENGYUN 4B